| time (UTC) | temp C | wind direction | speed KPH | gust KPH | rain 1hr cm | rain 24hr cm | rain mn cm | humidity % | barometer mb |
| 20260507093552 | 11 | 121 | 0.0 | 1.6 | 0.00 | 0.00 | 0.00 | 40 | 1014.0 |
| 20260507093051 | 11 | 225 | 0.0 | 1.6 | 0.00 | 0.00 | 0.00 | 40 | 1014.0 |
| 20260507092550 | 11 | 217 | 0.0 | 3.2 | 0.00 | 0.00 | 0.00 | 38 | 1014.0 |
| 20260507092048 | 11 | 229 | 0.0 | 8.0 | 0.00 | 0.00 | 0.00 | 39 | 1014.0 |
| 20260507091548 | 10 | 261 | 0.0 | 1.6 | 0.00 | 0.00 | 0.00 | 41 | 1013.9 |
| 20260507091049 | 10 | 103 | 0.0 | 0.0 | 0.00 | 0.00 | 0.00 | 39 | 1013.9 |
| 20260507090549 | 10 | 329 | 0.0 | 0.0 | 0.00 | 0.00 | 0.00 | 39 | 1013.9 |
| 20260507090048 | 10 | 273 | 0.0 | 0.0 | 0.00 | 0.00 | 0.00 | 37 | 1014.0 |
| 20260507085548 | 10 | 263 | 0.0 | 0.0 | 0.00 | 0.00 | 0.00 | 39 | 1014.0 |
| 20260507085046 | 10 | 291 | 0.0 | 1.6 | 0.00 | 0.00 | 0.00 | 41 | 1014.1 |
| 20260507084551 | 10 | 289 | 0.0 | 1.6 | 0.00 | 0.00 | 0.00 | 39 | 1014.1 |
| 20260507084044 | 10 | 300 | 0.0 | 0.0 | 0.00 | 0.00 | 0.00 | 42 | 1014.1 |
| 20260507083544 | 10 | 265 | 0.0 | 0.0 | 0.00 | 0.00 | 0.00 | 43 | 1014.1 |
| 20260507083048 | 10 | 261 | 0.0 | 0.0 | 0.00 | 0.00 | 0.00 | 43 | 1014.1 |
| 20260507082544 | 9 | 209 | 0.0 | 0.0 | 0.00 | 0.00 | 0.00 | 43 | 1014.2 |
| 20260507082042 | 9 | 316 | 0.0 | 0.0 | 0.00 | 0.00 | 0.00 | 44 | 1014.1 |
| 20260507081538 | 8 | 316 | 0.0 | 1.6 | 0.00 | 0.00 | 0.00 | 43 | 1014.1 |
| 20260507081040 | 8 | 355 | 0.0 | 0.0 | 0.00 | 0.00 | 0.00 | 43 | 1014.2 |
| 20260507080535 | 8 | 244 | 0.0 | 0.0 | 0.00 | 0.00 | 0.00 | 45 | 1014.1 |
| 20260507080033 | 8 | 14 | 0.0 | 0.0 | 0.00 | 0.00 | 0.00 | 46 | 1014.1 |
| 20260507075532 | 8 | 17 | 0.0 | 0.0 | 0.00 | 0.00 | 0.00 | 49 | 1014.1 |
| 20260507075033 | 8 | 34 | 0.0 | 1.6 | 0.00 | 0.00 | 0.00 | 48 | 1014.1 |
| 20260507074530 | 7 | 53 | 0.0 | 1.6 | 0.00 | 0.00 | 0.00 | 51 | 1014.1 |
| 20260507074028 | 7 | 245 | 0.0 | 4.8 | 0.00 | 0.00 | 0.00 | 51 | 1014.1 |
| 20260507073527 | 7 | 326 | 0.0 | 4.8 | 0.00 | 0.00 | 0.00 | 50 | 1014.2 |
| 20260507073025 | 7 | 23 | 0.0 | 3.2 | 0.00 | 0.00 | 0.00 | 53 | 1014.2 |
| 20260507072524 | 6 | 36 | 0.0 | 1.6 | 0.00 | 0.00 | 0.00 | 52 | 1014.2 |
| 20260507072022 | 6 | 33 | 0.0 | 1.6 | 0.00 | 0.00 | 0.00 | 53 | 1014.2 |
| 20260507071521 | 6 | 5 | 0.0 | 1.6 | 0.00 | 0.00 | 0.00 | 55 | 1014.2 |
| 20260507071025 | 6 | 15 | 0.0 | 1.6 | 0.00 | 0.00 | 0.00 | 55 | 1014.3 |
| 20260507070518 | 6 | 26 | 0.0 | 3.2 | 0.00 | 0.00 | 0.00 | 56 | 1014.2 |
| 20260507070017 | 5 | 12 | 0.0 | 3.2 | 0.00 | 0.00 | 0.00 | 56 | 1014.3 |
| 20260507065519 | 5 | 5 | 0.0 | 0.0 | 0.00 | 0.00 | 0.00 | 57 | 1014.3 |
| 20260507065014 | 5 | 11 | 0.0 | 0.0 | 0.00 | 0.00 | 0.00 | 59 | 1014.2 |
| 20260507064512 | 5 | 360 | 0.0 | 0.0 | 0.00 | 0.00 | 0.00 | 64 | 1014.2 |
| 20260507064012 | 4 | 360 | 0.0 | 0.0 | 0.00 | 0.00 | 0.00 | 61 | 1014.2 |
| 20260507063508 | 4 | 360 | 0.0 | 1.6 | 0.00 | 0.00 | 0.00 | 67 | 1014.3 |
| 20260507063007 | 3 | 360 | 0.0 | 0.0 | 0.00 | 0.00 | 0.00 | 69 | 1014.3 |
| 20260507062506 | 3 | 360 | 0.0 | 0.0 | 0.00 | 0.00 | 0.00 | 70 | 1014.4 |
| 20260507062004 | 2 | 360 | 0.0 | 0.0 | 0.00 | 0.00 | 0.00 | 71 | 1014.3 |
| 20260507061504 | 2 | 360 | 0.0 | 1.6 | 0.00 | 0.00 | 0.00 | 74 | 1014.3 |
| 20260507061001 | 1 | 360 | 0.0 | 1.6 | 0.00 | 0.00 | 0.00 | 76 | 1014.4 |
| 20260507060501 | 0 | 360 | 0.0 | 0.0 | 0.00 | 0.00 | 0.00 | 77 | 1014.4 |
| 20260507060104 | 0 | 360 | 0.0 | 0.0 | 0.00 | 0.00 | 0.00 | 78 | 1014.3 |
| 20260507055558 | 0 | 360 | 0.0 | 0.0 | 0.00 | 0.00 | 0.00 | 79 | 1014.4 |
| 20260507055057 | 0 | 360 | 0.0 | 0.0 | 0.00 | 0.00 | 0.00 | 79 | 1014.4 |
| 20260507054606 | -1 | 360 | 0.0 | 0.0 | 0.00 | 0.00 | 0.00 | 80 | 1014.3 |
| 20260507054055 | -1 | 360 | 0.0 | 0.0 | 0.00 | 0.00 | 0.00 | 80 | 1014.3 |
| 20260507053555 | -1 | 360 | 0.0 | 0.0 | 0.00 | 0.00 | 0.00 | 80 | 1014.2 |
| 20260507053056 | -1 | 360 | 0.0 | 0.0 | 0.00 | 0.00 | 0.00 | 80 | 1014.2 |
| 20260507052537 | -1 | 360 | 0.0 | 0.0 | 0.00 | 0.00 | 0.00 | 80 | 1014.2 |
| 20260507052036 | -1 | 360 | 0.0 | 0.0 | 0.00 | 0.00 | 0.00 | 81 | 1014.2 |
| 20260507051536 | -1 | 360 | 0.0 | 0.0 | 0.00 | 0.00 | 0.00 | 81 | 1014.1 |
| 20260507051034 | -1 | 360 | 0.0 | 0.0 | 0.00 | 0.00 | 0.00 | 81 | 1014.2 |
| 20260507050534 | -1 | 360 | 0.0 | 0.0 | 0.00 | 0.00 | 0.00 | 81 | 1014.1 |
| 20260507050034 | -1 | 360 | 0.0 | 0.0 | 0.00 | 0.00 | 0.00 | 81 | 1014.1 |
| 20260507045534 | -1 | 360 | 0.0 | 0.0 | 0.00 | 0.00 | 0.00 | 80 | 1014.1 |
| 20260507045033 | -1 | 360 | 0.0 | 0.0 | 0.00 | 0.00 | 0.00 | 80 | 1014.0 |
| 20260507044533 | -1 | 360 | 0.0 | 0.0 | 0.00 | 0.00 | 0.00 | 79 | 1014.0 |
| 20260507044031 | -1 | 360 | 0.0 | 0.0 | 0.00 | 0.00 | 0.00 | 78 | 1013.9 |
| 20260507043530 | -1 | 360 | 0.0 | 0.0 | 0.00 | 0.00 | 0.00 | 77 | 1013.9 |
| 20260507043036 | 0 | 360 | 0.0 | 0.0 | 0.00 | 0.00 | 0.00 | 77 | 1013.8 |
| 20260507042530 | 0 | 360 | 0.0 | 0.0 | 0.00 | 0.00 | 0.00 | 76 | 1013.7 |
| 20260507042028 | 0 | 360 | 0.0 | 0.0 | 0.00 | 0.00 | 0.00 | 77 | 1013.7 |
| 20260507041527 | -1 | 360 | 0.0 | 0.0 | 0.00 | 0.00 | 0.00 | 77 | 1013.7 |
| 20260507041027 | -1 | 360 | 0.0 | 0.0 | 0.00 | 0.00 | 0.00 | 78 | 1013.7 |
| 20260507040526 | -1 | 5 | 0.0 | 0.0 | 0.00 | 0.00 | 0.00 | 79 | 1013.7 |
| 20260507040025 | -1 | 5 | 0.0 | 0.0 | 0.00 | 0.00 | 0.00 | 79 | 1013.6 |
| 20260507035525 | -1 | 5 | 0.0 | 0.0 | 0.00 | 0.00 | 0.00 | 79 | 1013.6 |
| 20260507035024 | -1 | 5 | 0.0 | 0.0 | 0.00 | 0.00 | 0.00 | 79 | 1013.6 |
| 20260507034522 | -1 | 5 | 0.0 | 0.0 | 0.00 | 0.00 | 0.00 | 78 | 1013.5 |
| 20260507034021 | -1 | 5 | 0.0 | 0.0 | 0.00 | 0.00 | 0.00 | 77 | 1013.5 |
| 20260507033520 | -1 | 5 | 0.0 | 0.0 | 0.00 | 0.00 | 0.00 | 76 | 1013.4 |
| 20260507033019 | -1 | 5 | 0.0 | 0.0 | 0.00 | 0.00 | 0.00 | 76 | 1013.4 |
| 20260507032519 | 0 | 5 | 0.0 | 0.0 | 0.00 | 0.00 | 0.00 | 75 | 1013.3 |
| 20260507032020 | 0 | 5 | 0.0 | 0.0 | 0.00 | 0.00 | 0.00 | 74 | 1013.3 |
| 20260507031514 | 0 | 5 | 0.0 | 0.0 | 0.00 | 0.00 | 0.00 | 72 | 1013.3 |
| 20260507031013 | 0 | 5 | 0.0 | 0.0 | 0.00 | 0.00 | 0.00 | 71 | 1013.2 |
| 20260507030512 | 0 | 5 | 0.0 | 0.0 | 0.00 | 0.00 | 0.00 | 71 | 1013.2 |
| 20260507030012 | 0 | 5 | 0.0 | 0.0 | 0.00 | 0.00 | 0.00 | 69 | 1013.2 |
| 20260507025509 | 0 | 5 | 0.0 | 0.0 | 0.00 | 0.00 | 0.00 | 68 | 1013.2 |
| 20260507025010 | 0 | 5 | 0.0 | 0.0 | 0.00 | 0.00 | 0.00 | 68 | 1013.2 |
| 20260507024509 | 0 | 355 | 0.0 | 6.4 | 0.00 | 0.00 | 0.00 | 68 | 1013.1 |
| 20260507024008 | 0 | 5 | 0.0 | 6.4 | 0.00 | 0.00 | 0.00 | 68 | 1013.2 |
| 20260507023509 | 0 | 18 | 0.0 | 1.6 | 0.00 | 0.00 | 0.00 | 69 | 1013.2 |
| 20260507023006 | 0 | 26 | 0.0 | 1.6 | 0.00 | 0.00 | 0.00 | 69 | 1013.1 |
| 20260507022506 | 0 | 16 | 0.0 | 0.0 | 0.00 | 0.00 | 0.00 | 68 | 1013.1 |
| 20260507022004 | 0 | 16 | 0.0 | 1.6 | 0.00 | 0.00 | 0.00 | 67 | 1013.0 |
| 20260507021509 | 1 | 16 | 0.0 | 1.6 | 0.00 | 0.00 | 0.00 | 67 | 1012.9 |
| 20260507021002 | 1 | 20 | 0.0 | 1.6 | 0.00 | 0.00 | 0.00 | 66 | 1013.0 |
| 20260507020501 | 1 | 355 | 0.0 | 3.2 | 0.00 | 0.00 | 0.00 | 65 | 1012.9 |
| 20260507020002 | 1 | 37 | 0.0 | 3.2 | 0.00 | 0.00 | 0.00 | 65 | 1012.9 |
| 20260507015500 | 1 | 15 | 0.0 | 4.8 | 0.00 | 0.00 | 0.00 | 65 | 1012.8 |
| 20260507015100 | 1 | 5 | 0.0 | 4.8 | 0.00 | 0.00 | 0.00 | 65 | 1012.8 |
| 20260507014609 | 1 | 344 | 0.0 | 1.6 | 0.00 | 0.00 | 0.00 | 67 | 1012.8 |
| 20260507014059 | 1 | 344 | 0.0 | 4.8 | 0.00 | 0.00 | 0.00 | 66 | 1012.9 |
| 20260507013558 | 1 | 336 | 0.0 | 4.8 | 0.00 | 0.00 | 0.00 | 66 | 1012.8 |
| 20260507013058 | 1 | 22 | 0.0 | 0.0 | 0.00 | 0.00 | 0.00 | 66 | 1012.8 |
| 20260507012557 | 1 | 339 | 0.0 | 0.0 | 0.00 | 0.00 | 0.00 | 66 | 1012.8 |
| 20260507012056 | 1 | 339 | 0.0 | 0.0 | 0.00 | 0.00 | 0.00 | 65 | 1012.7 |
| 20260507011603 | 1 | 338 | 0.0 | 0.0 | 0.00 | 0.00 | 0.00 | 65 | 1012.6 |
| 20260507011055 | 1 | 343 | 0.0 | 4.8 | 0.00 | 0.00 | 0.00 | 65 | 1012.7 |
| 20260507010555 | 1 | 338 | 0.0 | 4.8 | 0.00 | 0.00 | 0.00 | 64 | 1012.6 |
| 20260507010056 | 2 | 335 | 0.0 | 4.8 | 0.00 | 0.00 | 0.00 | 63 | 1012.5 |
| 20260507005554 | 2 | 341 | 0.0 | 3.2 | 0.00 | 0.00 | 0.00 | 63 | 1012.5 |
| 20260507005057 | 2 | 5 | 0.0 | 3.2 | 0.00 | 0.00 | 0.00 | 61 | 1012.5 |
| 20260507004553 | 2 | 319 | 0.0 | 1.6 | 0.00 | 0.00 | 0.00 | 62 | 1012.4 |
| 20260507004052 | 2 | 9 | 0.0 | 1.6 | 0.00 | 0.00 | 0.00 | 61 | 1012.4 |
| 20260507003551 | 2 | 33 | 0.0 | 3.2 | 0.00 | 0.00 | 0.00 | 62 | 1012.4 |
| 20260507003050 | 2 | 22 | 0.0 | 4.8 | 0.00 | 0.00 | 0.00 | 62 | 1012.3 |
| 20260507002551 | 2 | 34 | 0.0 | 4.8 | 0.00 | 0.00 | 0.00 | 63 | 1012.3 |
| 20260507002051 | 1 | 53 | 0.0 | 3.2 | 0.00 | 0.00 | 0.00 | 66 | 1012.3 |
| 20260507001605 | 1 | 19 | 0.0 | 3.2 | 0.00 | 0.00 | 0.00 | 67 | 1012.3 |
| 20260507001048 | 1 | 19 | 0.0 | 0.0 | 0.00 | 0.00 | 0.00 | 68 | 1012.2 |
| 20260507000549 | 1 | 19 | 0.0 | 0.0 | 0.00 | 0.00 | 0.00 | 67 | 1012.1 |
| 20260507000056 | 1 | 13 | 0.0 | 0.0 | 0.00 | 0.00 | 0.00 | 68 | 1012.2 |
| 20260506235547 | 1 | 13 | 0.0 | 0.0 | 0.00 | 0.00 | 0.00 | 67 | 1012.2 |
| 20260506235048 | 1 | 13 | 0.0 | 0.0 | 0.00 | 0.00 | 0.00 | 68 | 1012.2 |
| 20260506234546 | 1 | 13 | 0.0 | 0.0 | 0.00 | 0.00 | 0.00 | 67 | 1012.1 |
| 20260506234045 | 1 | 13 | 0.0 | 0.0 | 0.00 | 0.00 | 0.00 | 68 | 1012.1 |
| 20260506233544 | 1 | 13 | 0.0 | 0.0 | 0.00 | 0.00 | 0.00 | 66 | 1012.2 |
| 20260506233043 | 1 | 13 | 0.0 | 0.0 | 0.00 | 0.00 | 0.00 | 65 | 1012.2 |
| 20260506232542 | 1 | 13 | 0.0 | 0.0 | 0.00 | 0.00 | 0.00 | 65 | 1012.2 |
| 20260506232141 | 2 | 13 | 0.0 | 0.0 | 0.00 | 0.00 | 0.00 | 65 | 1012.1 |
| 20260506231540 | 2 | 13 | 0.0 | 0.0 | 0.00 | 0.00 | 0.00 | 65 | 1012.0 |
| 20260506231039 | 2 | 13 | 0.0 | 0.0 | 0.00 | 0.00 | 0.00 | 64 | 1012.0 |
| 20260506230541 | 2 | 13 | 0.0 | 1.6 | 0.00 | 0.00 | 0.00 | 64 | 1011.9 |
| 20260506230037 | 2 | 13 | 0.0 | 0.0 | 0.00 | 0.00 | 0.00 | 63 | 1011.8 |
| 20260506225538 | 2 | 13 | 0.0 | 4.8 | 0.00 | 0.00 | 0.00 | 63 | 1011.8 |
| 20260506225037 | 2 | 36 | 0.0 | 0.0 | 0.00 | 0.00 | 0.00 | 64 | 1011.7 |
| 20260506224537 | 2 | 12 | 0.0 | 0.0 | 0.00 | 0.00 | 0.00 | 63 | 1011.7 |
| 20260506224034 | 2 | 22 | 0.0 | 0.0 | 0.00 | 0.00 | 0.00 | 63 | 1011.5 |
| 20260506223534 | 2 | 329 | 0.0 | 0.0 | 0.00 | 0.00 | 0.00 | 63 | 1011.6 |
| 20260506223035 | 2 | 320 | 0.0 | 0.0 | 0.00 | 0.00 | 0.00 | 63 | 1011.6 |
| 20260506222533 | 2 | 284 | 0.0 | 0.0 | 0.00 | 0.00 | 0.00 | 62 | 1011.6 |
| 20260506222032 | 2 | 283 | 0.0 | 0.0 | 0.00 | 0.00 | 0.00 | 62 | 1011.5 |
| 20260506221529 | 2 | 283 | 0.0 | 0.0 | 0.00 | 0.00 | 0.00 | 61 | 1011.5 |
| 20260506221028 | 3 | 283 | 0.0 | 0.0 | 0.00 | 0.00 | 0.00 | 60 | 1011.4 |
| 20260506220527 | 3 | 283 | 0.0 | 4.8 | 0.00 | 0.00 | 0.00 | 59 | 1011.4 |
| 20260506220026 | 3 | 360 | 0.0 | 4.8 | 0.00 | 0.00 | 0.00 | 58 | 1011.3 |
| 20260506215526 | 3 | 35 | 0.0 | 4.8 | 0.00 | 0.00 | 0.00 | 58 | 1011.3 |
| 20260506215026 | 3 | 335 | 0.0 | 4.8 | 0.00 | 0.00 | 0.00 | 57 | 1011.2 |
| 20260506214526 | 3 | 360 | 0.0 | 4.8 | 0.00 | 0.00 | 0.00 | 57 | 1011.3 |
| 20260506214024 | 3 | 27 | 0.0 | 0.0 | 0.00 | 0.00 | 0.00 | 57 | 1011.2 |
| 20260506213526 | 3 | 50 | 0.0 | 0.0 | 0.00 | 0.00 | 0.00 | 57 | 1011.1 |
| 20260506213025 | 3 | 38 | 0.0 | 1.6 | 0.00 | 0.00 | 0.00 | 57 | 1011.2 |
| 20260506212529 | 3 | 48 | 0.0 | 1.6 | 0.00 | 0.00 | 0.00 | 56 | 1011.1 |
| 20260506212024 | 3 | 48 | 0.0 | 1.6 | 0.00 | 0.00 | 0.00 | 55 | 1011.1 |
| 20260506211523 | 3 | 48 | 0.0 | 0.0 | 0.00 | 0.00 | 0.00 | 55 | 1011.1 |
| 20260506211023 | 3 | 48 | 0.0 | 0.0 | 0.00 | 0.00 | 0.00 | 55 | 1010.9 |
| 20260506210525 | 3 | 48 | 0.0 | 0.0 | 0.00 | 0.00 | 0.00 | 55 | 1011.0 |
| 20260506210024 | 3 | 48 | 0.0 | 0.0 | 0.00 | 0.00 | 0.00 | 54 | 1010.9 |
| 20260506205523 | 4 | 48 | 0.0 | 8.0 | 0.00 | 0.00 | 0.00 | 53 | 1010.9 |
| 20260506205023 | 4 | 48 | 0.0 | 8.0 | 0.00 | 0.00 | 0.00 | 52 | 1010.8 |
| 20260506204623 | 4 | 41 | 0.0 | 1.6 | 0.00 | 0.00 | 0.00 | 52 | 1010.8 |
| 20260506204022 | 4 | 31 | 0.0 | 1.6 | 0.00 | 0.00 | 0.00 | 52 | 1010.7 |
| 20260506203522 | 5 | 25 | 0.0 | 0.0 | 0.00 | 0.00 | 0.00 | 51 | 1010.7 |
| 20260506203145 | 5 | 10 | 0.0 | 0.0 | 0.00 | 0.00 | 0.00 | 49 | 1010.7 |
| 20260506202513 | 5 | 336 | 0.0 | 8.0 | 0.00 | 0.00 | 0.00 | 48 | 1010.6 |
| 20260506202013 | 5 | 315 | 0.0 | 0.0 | 0.00 | 0.00 | 0.00 | 48 | 1010.5 |
| 20260506201518 | 5 | 40 | 0.0 | 4.8 | 0.00 | 0.00 | 0.00 | 48 | 1010.6 |
| 20260506201012 | 5 | 15 | 0.0 | 4.8 | 0.00 | 0.00 | 0.00 | 47 | 1010.5 |
| 20260506200513 | 5 | 13 | 0.0 | 3.2 | 0.00 | 0.00 | 0.00 | 47 | 1010.5 |
| 20260506200013 | 5 | 32 | 0.0 | 0.0 | 0.00 | 0.00 | 0.00 | 47 | 1010.5 |
| 20260506195515 | 5 | 30 | 0.0 | 6.4 | 0.00 | 0.00 | 0.00 | 46 | 1010.4 |
| 20260506195011 | 5 | 11 | 0.0 | 6.4 | 0.00 | 0.00 | 0.00 | 46 | 1010.3 |
| 20260506194511 | 6 | 355 | 0.0 | 1.6 | 0.00 | 0.00 | 0.00 | 46 | 1010.3 |
| 20260506194010 | 6 | 5 | 0.0 | 0.0 | 0.00 | 0.00 | 0.00 | 45 | 1010.2 |
| 20260506193512 | 6 | 355 | 0.0 | 0.0 | 0.00 | 0.00 | 0.00 | 45 | 1010.2 |
| 20260506193011 | 6 | 355 | 0.0 | 0.0 | 0.00 | 0.00 | 0.00 | 44 | 1010.1 |
| 20260506192510 | 6 | 25 | 0.0 | 0.0 | 0.00 | 0.00 | 0.00 | 43 | 1010.0 |
| 20260506192010 | 7 | 34 | 0.0 | 0.0 | 0.00 | 0.00 | 0.00 | 42 | 1009.9 |
| 20260506191513 | 7 | 340 | 0.0 | 0.0 | 0.00 | 0.00 | 0.00 | 41 | 1009.9 |
| 20260506191009 | 7 | 34 | 0.0 | 6.4 | 0.00 | 0.00 | 0.00 | 40 | 1009.8 |
| 20260506190509 | 7 | 333 | 0.0 | 6.4 | 0.00 | 0.00 | 0.00 | 40 | 1009.8 |
| 20260506190009 | 7 | 329 | 0.0 | 0.0 | 0.00 | 0.00 | 0.00 | 39 | 1009.8 |
| 20260506185509 | 7 | 322 | 0.0 | 1.6 | 0.00 | 0.00 | 0.00 | 38 | 1009.7 |
| 20260506185009 | 8 | 328 | 0.0 | 9.7 | 0.00 | 0.00 | 0.00 | 38 | 1009.6 |
| 20260506184502 | 8 | 331 | 0.0 | 9.7 | 0.00 | 0.00 | 0.00 | 38 | 1009.6 |
| 20260506184103 | 8 | 337 | 0.0 | 8.0 | 0.00 | 0.00 | 0.00 | 37 | 1009.5 |
| 20260506183601 | 8 | 320 | 0.0 | 16.1 | 0.00 | 0.00 | 0.00 | 37 | 1009.5 |
| 20260506183112 | 8 | 344 | 0.0 | 16.1 | 0.00 | 0.00 | 0.00 | 37 | 1009.4 |
| 20260506182600 | 8 | 343 | 0.0 | 17.7 | 0.00 | 0.00 | 0.00 | 36 | 1009.4 |
| 20260506182100 | 8 | 332 | 0.0 | 17.7 | 0.00 | 0.00 | 0.00 | 35 | 1009.3 |
| 20260506181604 | 8 | 326 | 0.0 | 14.5 | 0.00 | 0.00 | 0.00 | 36 | 1009.3 |
| 20260506181059 | 8 | 328 | 1.6 | 14.5 | 0.00 | 0.00 | 0.00 | 35 | 1009.2 |
| 20260506180559 | 8 | 319 | 0.0 | 0.0 | 0.00 | 0.00 | 0.00 | 34 | 1009.2 |
| 20260506180059 | 8 | 317 | 0.0 | 0.0 | 0.00 | 0.00 | 0.00 | 34 | 1009.1 |
| 20260506175602 | 9 | 311 | 0.0 | 0.0 | 0.00 | 0.00 | 0.00 | 34 | 1009.0 |
| 20260506175058 | 9 | 247 | 0.0 | 0.0 | 0.00 | 0.00 | 0.00 | 33 | 1009.0 |
| 20260506174610 | 9 | 13 | 0.0 | 1.6 | 0.00 | 0.00 | 0.00 | 32 | 1009.0 |
| 20260506174101 | 9 | 290 | 0.0 | 1.6 | 0.00 | 0.00 | 0.00 | 32 | 1008.9 |
| 20260506173558 | 9 | 249 | 0.0 | 1.6 | 0.00 | 0.00 | 0.00 | 32 | 1008.9 |
| 20260506173058 | 10 | 268 | 0.0 | 0.0 | 0.00 | 0.00 | 0.00 | 31 | 1008.8 |
| 20260506172557 | 10 | 275 | 0.0 | 0.0 | 0.00 | 0.00 | 0.00 | 32 | 1008.7 |
| 20260506172057 | 10 | 318 | 0.0 | 0.0 | 0.00 | 0.00 | 0.00 | 31 | 1008.8 |
| 20260506171605 | 10 | 229 | 0.0 | 3.2 | 0.00 | 0.00 | 0.00 | 30 | 1008.7 |
| 20260506171157 | 10 | 245 | 0.0 | 3.2 | 0.00 | 0.00 | 0.00 | 30 | 1008.6 |
| 20260506170556 | 11 | 261 | 0.0 | 1.6 | 0.00 | 0.00 | 0.00 | 28 | 1008.6 |
| 20260506170100 | 11 | 283 | 0.0 | 0.0 | 0.00 | 0.00 | 0.00 | 29 | 1008.7 |
| 20260506165600 | 11 | 267 | 0.0 | 0.0 | 0.00 | 0.00 | 0.00 | 28 | 1008.7 |
| 20260506165056 | 11 | 288 | 0.0 | 0.0 | 0.00 | 0.00 | 0.00 | 27 | 1008.6 |
| 20260506164559 | 11 | 301 | 0.0 | 4.8 | 0.00 | 0.00 | 0.00 | 26 | 1008.6 |
| 20260506164055 | 11 | 313 | 0.0 | 4.8 | 0.00 | 0.00 | 0.00 | 28 | 1008.6 |
| 20260506163555 | 11 | 304 | 0.0 | 12.9 | 0.00 | 0.00 | 0.00 | 28 | 1008.6 |
| 20260506163116 | 11 | 332 | 0.0 | 12.9 | 0.00 | 0.00 | 0.00 | 28 | 1008.6 |
| 20260506162554 | 11 | 314 | 0.0 | 12.9 | 0.00 | 0.00 | 0.00 | 28 | 1008.5 |
| 20260506162054 | 11 | 258 | 0.0 | 12.9 | 0.00 | 0.00 | 0.00 | 28 | 1008.5 |
| 20260506161554 | 11 | 275 | 0.0 | 6.4 | 0.00 | 0.00 | 0.00 | 30 | 1008.5 |
| 20260506161053 | 11 | 340 | 0.0 | 6.4 | 0.00 | 0.00 | 0.00 | 28 | 1008.5 |
| 20260506160553 | 11 | 336 | 0.0 | 22.5 | 0.00 | 0.00 | 0.00 | 30 | 1008.5 |
| 20260506160053 | 11 | 286 | 0.0 | 22.5 | 0.00 | 0.00 | 0.00 | 30 | 1008.4 |
| 20260506155552 | 12 | 263 | 0.0 | 12.9 | 0.00 | 0.00 | 0.00 | 29 | 1008.5 |
| 20260506155053 | 11 | 325 | 0.0 | 12.9 | 0.00 | 0.00 | 0.00 | 31 | 1008.5 |
| 20260506154554 | 11 | 291 | 0.0 | 11.3 | 0.00 | 0.00 | 0.00 | 30 | 1008.3 |
| 20260506154055 | 11 | 303 | 0.0 | 14.5 | 0.00 | 0.00 | 0.00 | 31 | 1008.3 |
| 20260506153552 | 11 | 269 | 0.0 | 16.1 | 0.00 | 0.00 | 0.00 | 30 | 1008.3 |
| 20260506153057 | 11 | 347 | 0.0 | 16.1 | 0.00 | 0.00 | 0.00 | 29 | 1008.3 |
| 20260506152552 | 11 | 284 | 0.0 | 11.3 | 0.00 | 0.00 | 0.00 | 32 | 1008.3 |
| 20260506152050 | 11 | 277 | 0.0 | 8.0 | 0.00 | 0.00 | 0.00 | 29 | 1008.2 |
| 20260506151547 | 11 | 241 | 0.0 | 8.0 | 0.00 | 0.00 | 0.00 | 30 | 1008.2 |
| 20260506151047 | 12 | 320 | 0.0 | 4.8 | 0.00 | 0.00 | 0.00 | 30 | 1008.1 |
| 20260506150546 | 12 | 300 | 0.0 | 4.8 | 0.00 | 0.00 | 0.00 | 29 | 1008.2 |
| 20260506150045 | 12 | 291 | 0.0 | 17.7 | 0.00 | 0.00 | 0.00 | 29 | 1008.3 |
| 20260506145549 | 12 | 259 | 1.6 | 17.7 | 0.00 | 0.00 | 0.00 | 27 | 1008.3 |
| 20260506145044 | 12 | 294 | 0.0 | 8.0 | 0.00 | 0.00 | 0.00 | 29 | 1008.3 |
| 20260506144546 | 13 | 276 | 0.0 | 6.4 | 0.00 | 0.00 | 0.00 | 29 | 1008.4 |
| 20260506144042 | 13 | 261 | 0.0 | 6.4 | 0.00 | 0.00 | 0.00 | 28 | 1008.3 |
| 20260506143542 | 13 | 281 | 0.0 | 3.2 | 0.00 | 0.00 | 0.00 | 26 | 1008.4 |
| 20260506143042 | 13 | 246 | 0.0 | 3.2 | 0.00 | 0.00 | 0.00 | 25 | 1008.3 |
| 20260506142545 | 13 | 286 | 0.0 | 11.3 | 0.00 | 0.00 | 0.00 | 26 | 1008.3 |
| 20260506142040 | 13 | 265 | 0.0 | 11.3 | 0.00 | 0.00 | 0.00 | 25 | 1008.3 |
| 20260506141540 | 13 | 283 | 0.0 | 3.2 | 0.00 | 0.00 | 0.00 | 24 | 1008.2 |
| 20260506141039 | 13 | 308 | 0.0 | 11.3 | 0.00 | 0.00 | 0.00 | 26 | 1008.3 |
| 20260506140638 | 13 | 242 | 1.6 | 11.3 | 0.00 | 0.00 | 0.00 | 26 | 1008.2 |
| 20260506140037 | 13 | 210 | 0.0 | 4.8 | 0.00 | 0.00 | 0.00 | 26 | 1008.2 |
| 20260506135536 | 13 | 253 | 0.0 | 3.2 | 0.00 | 0.00 | 0.00 | 25 | 1008.4 |
| 20260506135034 | 13 | 231 | 0.0 | 1.6 | 0.00 | 0.00 | 0.00 | 28 | 1008.4 |
| 20260506134533 | 12 | 259 | 0.0 | 1.6 | 0.00 | 0.00 | 0.00 | 29 | 1008.4 |
| 20260506134032 | 12 | 329 | 0.0 | 6.4 | 0.00 | 0.00 | 0.00 | 28 | 1008.3 |
| 20260506133532 | 12 | 229 | 0.0 | 9.7 | 0.00 | 0.00 | 0.00 | 29 | 1008.4 |
| 20260506133033 | 12 | 5 | 0.0 | 20.9 | 0.00 | 0.00 | 0.00 | 27 | 1008.4 |
| 20260506132529 | 12 | 343 | 1.6 | 20.9 | 0.00 | 0.00 | 0.00 | 28 | 1008.4 |
| 20260506132031 | 11 | 276 | 0.0 | 4.8 | 0.00 | 0.00 | 0.00 | 27 | 1008.6 |
| 20260506131535 | 11 | 281 | 0.0 | 4.8 | 0.00 | 0.00 | 0.00 | 28 | 1008.6 |
| 20260506131028 | 11 | 267 | 0.0 | 4.8 | 0.00 | 0.00 | 0.00 | 27 | 1008.5 |
| 20260506130529 | 11 | 265 | 0.0 | 8.0 | 0.00 | 0.00 | 0.00 | 26 | 1008.4 |
| 20260506130026 | 11 | 344 | 0.0 | 8.0 | 0.00 | 0.00 | 0.00 | 30 | 1008.5 |
| 20260506125526 | 11 | 323 | 0.0 | 4.8 | 0.00 | 0.00 | 0.00 | 28 | 1008.5 |
| 20260506125025 | 12 | 271 | 0.0 | 1.6 | 0.00 | 0.00 | 0.00 | 30 | 1008.5 |
| 20260506124525 | 11 | 259 | 0.0 | 14.5 | 0.00 | 0.00 | 0.00 | 28 | 1008.5 |
| 20260506124026 | 11 | 321 | 0.0 | 14.5 | 0.00 | 0.00 | 0.00 | 28 | 1008.6 |
| 20260506123525 | 11 | 289 | 0.0 | 6.4 | 0.00 | 0.00 | 0.00 | 29 | 1008.6 |
| 20260506123025 | 11 | 355 | 0.0 | 12.9 | 0.00 | 0.00 | 0.00 | 28 | 1008.6 |
| 20260506122527 | 11 | 346 | 0.0 | 14.5 | 0.00 | 0.00 | 0.00 | 27 | 1008.6 |
| 20260506122023 | 11 | 327 | 0.0 | 14.5 | 0.00 | 0.00 | 0.00 | 30 | 1008.8 |
| 20260506121521 | 11 | 243 | 0.0 | 4.8 | 0.00 | 0.00 | 0.00 | 28 | 1008.8 |
| 20260506121019 | 11 | 269 | 0.0 | 9.7 | 0.00 | 0.00 | 0.00 | 27 | 1008.9 |
| 20260506120519 | 11 | 355 | 0.0 | 9.7 | 0.00 | 0.00 | 0.00 | 29 | 1008.9 |
| 20260506120019 | 11 | 350 | 0.0 | 8.0 | 0.00 | 0.00 | 0.00 | 29 | 1008.9 |
| 20260506115519 | 11 | 327 | 0.0 | 19.3 | 0.00 | 0.00 | 0.00 | 29 | 1008.9 |
| 20260506115016 | 11 | 324 | 0.0 | 0.0 | 0.00 | 0.00 | 0.00 | 29 | 1008.9 |
| 20260506114516 | 11 | 360 | 0.0 | 14.5 | 0.00 | 0.00 | 0.00 | 31 | 1008.9 |
| 20260506114014 | 10 | 5 | 1.6 | 14.5 | 0.00 | 0.00 | 0.00 | 28 | 1008.9 |
| 20260506113514 | 10 | 320 | 0.0 | 9.7 | 0.00 | 0.00 | 0.00 | 30 | 1009.0 |
| 20260506113013 | 10 | 355 | 0.0 | 3.2 | 0.00 | 0.00 | 0.00 | 30 | 1009.0 |
| 20260506112516 | 10 | 312 | 0.0 | 3.2 | 0.00 | 0.00 | 0.00 | 29 | 1009.0 |
| 20260506112011 | 10 | 351 | 0.0 | 14.5 | 0.00 | 0.00 | 0.00 | 32 | 1009.1 |
| 20260506111520 | 10 | 343 | 0.0 | 12.9 | 0.00 | 0.00 | 0.00 | 31 | 1009.2 |
| 20260506111009 | 10 | 124 | 0.0 | 12.9 | 0.00 | 0.00 | 0.00 | 32 | 1009.2 |
| 20260506110508 | 10 | 355 | 0.0 | 0.0 | 0.00 | 0.00 | 0.00 | 31 | 1009.3 |
| 20260506110010 | 10 | 65 | 0.0 | 0.0 | 0.00 | 0.00 | 0.00 | 30 | 1009.4 |
| 20260506105508 | 10 | 329 | 0.0 | 3.2 | 0.00 | 0.00 | 0.00 | 32 | 1009.4 |
| 20260506105011 | 10 | 355 | 0.0 | 3.2 | 0.00 | 0.00 | 0.00 | 30 | 1009.4 |
| 20260506104505 | 10 | 5 | 0.0 | 1.6 | 0.00 | 0.00 | 0.00 | 29 | 1009.4 |
| 20260506104007 | 10 | 92 | 0.0 | 1.6 | 0.00 | 0.00 | 0.00 | 33 | 1009.4 |
| 20260506103503 | 10 | 328 | 0.0 | 0.0 | 0.00 | 0.00 | 0.00 | 31 | 1009.4 |
| 20260506103003 | 10 | 340 | 0.0 | 6.4 | 0.00 | 0.00 | 0.00 | 34 | 1009.5 |
| 20260506102503 | 10 | 273 | 0.0 | 6.4 | 0.00 | 0.00 | 0.00 | 33 | 1009.6 |
| 20260506102101 | 10 | 16 | 0.0 | 0.0 | 0.00 | 0.00 | 0.00 | 33 | 1009.7 |
| 20260506101632 | 10 | 136 | 0.0 | 0.0 | 0.00 | 0.00 | 0.00 | 36 | 1009.7 |
| 20260506101100 | 10 | 312 | 0.0 | 1.6 | 0.00 | 0.00 | 0.00 | 32 | 1009.8 |
| 20260506100557 | 10 | 223 | 0.0 | 1.6 | 0.00 | 0.00 | 0.00 | 34 | 1009.8 |
| 20260506100058 | 10 | 277 | 0.0 | 0.0 | 0.00 | 0.00 | 0.00 | 36 | 1009.8 |
| 20260506095556 | 10 | 285 | 0.0 | 0.0 | 0.00 | 0.00 | 0.00 | 36 | 1009.9 |
| 20260506095055 | 10 | 82 | 0.0 | 0.0 | 0.00 | 0.00 | 0.00 | 40 | 1009.9 |
| 20260506094557 | 10 | 252 | 0.0 | 0.0 | 0.00 | 0.00 | 0.00 | 36 | 1009.9 |
| 20260506094051 | 9 | 218 | 0.0 | 6.4 | 0.00 | 0.00 | 0.00 | 37 | 1009.9 |